When you browse on this site, cookies collect data to enhance your experience and personalize the content and advertising you see.
Visit our Privacy Policy to learn more. By continuing to use the site, you agree to this use of cookies and data.
  • In Switzerland
  • List of Countries
  • For 7 days
  • Water Temperature
  • Weather Map
  • Weather Widgets
  • user-avatar
    Login

    Hourly Weather Juneau

    Today, 6 June, Saturday

    Time Temperature Precipitation Wind Pressure Humidity
    00:00 +7°C° 0 mm 1 mps 718 mmHg 78%
    01:00 +7°C° 0 mm 1 mps 718 mmHg 77%
    02:00 +7°C° 0 mm 1 mps 718 mmHg 77%
    03:00 +7°C° 0 mm 1 mps 718 mmHg 76%
    04:00 +8°C° 0 mm 1 mps 717 mmHg 75%
    05:00 +9°C° 0 mm 1 mps 717 mmHg 74%
    06:00 +9°C° 0 mm 2 mps 717 mmHg 73%
    07:00 +10°C° 0 mm 2 mps 717 mmHg 72%
    08:00 +10°C° 0 mm 2 mps 717 mmHg 70%
    09:00 +12°C° 0 mm 2 mps 717 mmHg 69%
    10:00 +13°C° 0 mm 2 mps 717 mmHg 67%
    11:00 +13°C° 0 mm 2 mps 717 mmHg 66%
    12:00 +14°C° 0 mm 2 mps 717 mmHg 65%
    13:00 +13°C° 0.1 mm 2 mps 717 mmHg 70%
    14:00 +12°C° 0.1 mm 2 mps 717 mmHg 75%
    15:00 +10°C° 0.1 mm 2 mps 716 mmHg 80%
    16:00 +10°C° 0.4 mm 1 mps 716 mmHg 85%
    17:00 +10°C° 0.4 mm 1 mps 716 mmHg 90%
    18:00 +9°C° 0.4 mm 1 mps 716 mmHg 95%
    19:00 +9°C° 0.4 mm 1 mps 716 mmHg 96%
    20:00 +8°C° 0.4 mm 1 mps 717 mmHg 97%
    21:00 +8°C° 0.4 mm 1 mps 717 mmHg 98%
    22:00 +8°C° 0.9 mm 1 mps 717 mmHg 98%
    23:00 +8°C° 0.9 mm 1 mps 717 mmHg 98%

    Tomorrow, 7 June, Sunday

    Time Temperature Precipitation Wind Pressure Humidity
    00:00 +8°C° 0.9 mm 1 mps 717 mmHg 98%
    01:00 +7°C° 0.9 mm 2 mps 717 mmHg 98%
    02:00 +7°C° 0.9 mm 2 mps 717 mmHg 98%
    03:00 +7°C° 0.9 mm 2 mps 718 mmHg 98%
    04:00 +7°C° 1 mm 2 mps 718 mmHg 98%
    05:00 +7°C° 1 mm 2 mps 718 mmHg 98%
    06:00 +7°C° 1 mm 3 mps 718 mmHg 98%
    07:00 +7°C° 1.3 mm 3 mps 719 mmHg 97%
    08:00 +7°C° 1.3 mm 3 mps 719 mmHg 97%
    09:00 +7°C° 1.3 mm 3 mps 720 mmHg 96%
    10:00 +7°C° 0.6 mm 3 mps 720 mmHg 96%
    11:00 +7°C° 0.6 mm 3 mps 721 mmHg 95%
    12:00 +7°C° 0.6 mm 3 mps 722 mmHg 95%
    13:00 +7°C° 0.3 mm 2 mps 722 mmHg 95%
    14:00 +7°C° 0.3 mm 2 mps 722 mmHg 95%
    15:00 +7°C° 0.3 mm 2 mps 722 mmHg 95%
    16:00 +7°C° 0.1 mm 2 mps 723 mmHg 95%
    17:00 +8°C° 0.1 mm 1 mps 723 mmHg 95%
    18:00 +7°C° 0.1 mm 1 mps 723 mmHg 95%
    19:00 +7°C° 0.1 mm 1 mps 723 mmHg 95%
    20:00 +7°C° 0.1 mm 1 mps 723 mmHg 96%
    21:00 +6°C° 0.1 mm 0 mps 723 mmHg 96%
    22:00 +6°C° 0 mm 0 mps 723 mmHg 95%
    23:00 +6°C° 0 mm 0 mps 723 mmHg 94%

    Day after tomorrow, 8 June, Monday

    Time Temperature Precipitation Wind Pressure Humidity
    00:00 +6°C° 0 mm 0 mps 723 mmHg 94%
    01:00 +5°C° 0 mm 0 mps 723 mmHg 93%
    02:00 +5°C° 0 mm 0 mps 723 mmHg 93%
    03:00 +5°C° 0 mm 0 mps 723 mmHg 92%
    04:00 +5°C° 0 mm 0 mps 723 mmHg 91%
    05:00 +6°C° 0 mm 0 mps 723 mmHg 90%
    06:00 +7°C° 0 mm 1 mps 722 mmHg 88%
    07:00 +8°C° 0 mm 1 mps 722 mmHg 86%
    08:00 +8°C° 0 mm 1 mps 722 mmHg 84%
    09:00 +9°C° 0 mm 1 mps 722 mmHg 81%
    10:00 +9°C° 0 mm 1 mps 722 mmHg 79%
    11:00 +10°C° 0 mm 1 mps 722 mmHg 77%
    12:00 +10°C° 0 mm 1 mps 722 mmHg 75%
    13:00 +10°C° 0.1 mm 1 mps 722 mmHg 74%
    14:00 +10°C° 0.1 mm 1 mps 722 mmHg 74%
    15:00 +10°C° 0.1 mm 1 mps 722 mmHg 73%
    16:00 +10°C° 0.1 mm 1 mps 722 mmHg 76%
    17:00 +9°C° 0.1 mm 1 mps 722 mmHg 79%
    18:00 +9°C° 0.1 mm 1 mps 722 mmHg 82%
    19:00 +7°C° 0.2 mm 2 mps 722 mmHg 86%
    20:00 +7°C° 0.2 mm 2 mps 722 mmHg 89%
    21:00 +6°C° 0.2 mm 2 mps 722 mmHg 93%
    22:00 +6°C° 0.5 mm 2 mps 723 mmHg 93%
    23:00 +7°C° 0.5 mm 1 mps 723 mmHg 94%

    9 June, Tuesday

    Time Temperature Precipitation Wind Pressure Humidity
    00:00 +7°C° 0.5 mm 1 mps 723 mmHg 95%
    01:00 +7°C° 0.6 mm 1 mps 723 mmHg 95%
    02:00 +7°C° 0.6 mm 1 mps 723 mmHg 94%
    03:00 +7°C° 0.6 mm 1 mps 723 mmHg 94%
    04:00 +7°C° 1 mm 1 mps 723 mmHg 93%
    05:00 +7°C° 1 mm 1 mps 723 mmHg 93%
    06:00 +7°C° 1 mm 1 mps 723 mmHg 92%
    07:00 +7°C° 0.3 mm 1 mps 723 mmHg 89%
    08:00 +8°C° 0.3 mm 1 mps 723 mmHg 86%
    09:00 +8°C° 0.3 mm 1 mps 723 mmHg 83%
    10:00 +9°C° 0 mm 1 mps 723 mmHg 79%
    11:00 +10°C° 0 mm 1 mps 723 mmHg 74%
    12:00 +11°C° 0 mm 1 mps 723 mmHg 70%
    13:00 +11°C° 0 mm 1 mps 722 mmHg 69%
    14:00 +11°C° 0 mm 1 mps 722 mmHg 67%
    15:00 +11°C° 0 mm 1 mps 722 mmHg 66%
    16:00 +11°C° 0 mm 1 mps 722 mmHg 65%
    17:00 +11°C° 0 mm 1 mps 721 mmHg 64%
    18:00 +11°C° 0 mm 1 mps 721 mmHg 63%
    19:00 +10°C° 0 mm 1 mps 721 mmHg 67%
    20:00 +8°C° 0 mm 1 mps 721 mmHg 70%
    21:00 +7°C° 0 mm 1 mps 721 mmHg 74%
    22:00 +7°C° 0 mm 1 mps 721 mmHg 72%
    23:00 +7°C° 0 mm 1 mps 721 mmHg 70%

    10 June, Wednesday

    Time Temperature Precipitation Wind Pressure Humidity
    00:00 +7°C° 0 mm 1 mps 721 mmHg 67%
    01:00 +6°C° 0 mm 2 mps 721 mmHg 66%
    02:00 +5°C° 0 mm 2 mps 721 mmHg 64%
    03:00 +5°C° 0 mm 2 mps 721 mmHg 62%
    04:00 +6°C° 0 mm 2 mps 722 mmHg 61%
    05:00 +8°C° 0 mm 1 mps 722 mmHg 60%
    06:00 +9°C° 0 mm 1 mps 722 mmHg 60%
    07:00 +10°C° 0 mm 1 mps 722 mmHg 60%
    08:00 +11°C° 0 mm 1 mps 723 mmHg 61%
    09:00 +12°C° 0 mm 1 mps 723 mmHg 61%
    10:00 +12°C° 0 mm 1 mps 724 mmHg 62%
    11:00 +13°C° 0 mm 2 mps 724 mmHg 62%
    12:00 +13°C° 0 mm 2 mps 725 mmHg 62%
    13:00 +13°C° 0 mm 2 mps 725 mmHg 65%
    14:00 +12°C° 0 mm 2 mps 726 mmHg 68%
    15:00 +12°C° 0 mm 2 mps 726 mmHg 71%
    16:00 +10°C° 0.2 mm 2 mps 726 mmHg 77%
    17:00 +9°C° 0.2 mm 2 mps 727 mmHg 82%
    18:00 +9°C° 0.2 mm 1 mps 727 mmHg 87%
    19:00 +9°C° 0.2 mm 1 mps 727 mmHg 90%
    20:00 +9°C° 0.2 mm 1 mps 727 mmHg 92%
    21:00 +8°C° 0.2 mm 1 mps 728 mmHg 94%
    22:00 +8°C° 0.1 mm 1 mps 728 mmHg 94%
    23:00 +8°C° 0.1 mm 1 mps 728 mmHg 94%

    11 June, Thursday

    Time Temperature Precipitation Wind Pressure Humidity
    00:00 +8°C° 0.1 mm 1 mps 728 mmHg 93%
    01:00 +8°C° 0 mm 1 mps 728 mmHg 92%
    02:00 +8°C° 0 mm 1 mps 727 mmHg 92%
    03:00 +8°C° 0 mm 1 mps 727 mmHg 91%
    04:00 +8°C° 0 mm 1 mps 727 mmHg 88%
    05:00 +9°C° 0 mm 1 mps 727 mmHg 85%
    06:00 +10°C° 0 mm 1 mps 727 mmHg 83%
    07:00 +11°C° 0 mm 1 mps 727 mmHg 80%
    08:00 +11°C° 0 mm 1 mps 726 mmHg 77%
    09:00 +12°C° 0 mm 1 mps 726 mmHg 74%
    10:00 +13°C° 0 mm 1 mps 726 mmHg 71%
    11:00 +13°C° 0 mm 1 mps 726 mmHg 68%
    12:00 +14°C° 0 mm 1 mps 726 mmHg 65%
    13:00 +14°C° 0 mm 1 mps 725 mmHg 64%
    14:00 +15°C° 0 mm 1 mps 725 mmHg 63%
    15:00 +15°C° 0 mm 1 mps 725 mmHg 61%
    16:00 +15°C° 0 mm 1 mps 725 mmHg 62%
    17:00 +14°C° 0 mm 1 mps 725 mmHg 62%
    18:00 +14°C° 0 mm 1 mps 725 mmHg 63%
    19:00 +13°C° 0 mm 1 mps 724 mmHg 67%
    20:00 +11°C° 0 mm 1 mps 724 mmHg 71%
    21:00 +10°C° 0 mm 1 mps 724 mmHg 75%
    22:00 +10°C° 0 mm 1 mps 724 mmHg 73%
    23:00 +9°C° 0 mm 1 mps 724 mmHg 71%
    Show more